, AK

(GMT )
Gustavus

Weather History for PAGS - October, 2011

Change the Weather History Date:

Sunday, October 9, 2011

  Actual Average Record
Temperature  
Mean Temperature 46 °F -  
Max Temperature 50 °F 50 °F 57 °F (2014)
Min Temperature 42 °F 37 °F 24 °F (1957)
Degree Days  
Heating Degree Days 19    
Moisture  
Dew Point 41 °F    
Average Humidity 84    
Maximum Humidity 93    
Minimum Humidity 66    
Precipitation  
Precipitation 0.00 in - - ()
Sea Level Pressure  
Sea Level Pressure 29.60 in    
Wind  
Wind Speed 4 mph (ESE)    
Max Wind Speed 12 mph    
Max Gust Speed -    
Visibility 10 miles    
Events      
Averages and records for this station are not official NWS values.
T = Trace of Precipitation, MM = Missing Value Source: NWS Daily Summary

Daily Weather History Graph

Daily Weather History Graph

Search for Another Location

Airport or City:

Trip Planner

Search our weather history database for the weather conditions in past years. The results will help you decide how hot, cold, wet, or windy it might be!

Date:

Astronomy

Oct. 09, 2011 Rise Set
Actual Time 7:24 AM AKDT 6:14 PM AKDT
Civil Twilight 6:45 AM AKDT 6:53 PM AKDT
Nautical Twilight 5:59 AM AKDT 7:39 PM AKDT
Astronomical Twilight 5:12 AM AKDT 8:26 PM AKDT
Moon 5:05 PM AKDT (10/9) 4:58 AM AKDT (10/9)
Length of Visible Light 12h 08m
Length of Day
10h 49m
Waxing Gibbous, 95% of the Moon is Illuminated
Oct 9
Waxing Gibbous
Oct 11
Full
Oct 19
Last Quarter
Oct 26
New
Nov 2
First Quarter

Hourly Weather History & Observations

Time (AKDT) Temp. Windchill Dew Point Humidity Pressure Visibility Wind Dir Wind Speed Gust Speed Precip Events Conditions
12:16 AM 42.8 °F - 39.2 °F 87% 29.45 in 10.0 mi Calm Calm - N/A   Overcast
12:36 AM 42.8 °F - 39.2 °F 87% 29.46 in 10.0 mi Calm Calm - N/A   Overcast
12:56 AM 42.8 °F - 39.2 °F 87% 29.46 in 10.0 mi Calm Calm - N/A   Overcast
1:16 AM 42.8 °F - 39.2 °F 87% 29.47 in 10.0 mi Calm Calm - N/A   Overcast
1:36 AM 42.8 °F - 39.2 °F 87% 29.47 in 10.0 mi Calm Calm - N/A   Overcast
1:56 AM 42.8 °F - 39.2 °F 87% 29.48 in 10.0 mi Calm Calm - N/A   Mostly Cloudy
2:16 AM 42.8 °F - 39.2 °F 87% 29.49 in 10.0 mi Calm Calm - N/A   Mostly Cloudy
2:36 AM 42.8 °F - 39.2 °F 87% 29.49 in 10.0 mi Calm Calm - N/A   Overcast
2:56 AM 42.8 °F - 39.2 °F 87% 29.50 in 10.0 mi Calm Calm - N/A   Overcast
3:16 AM 42.8 °F - 39.2 °F 87% 29.50 in 10.0 mi Calm Calm - N/A   Overcast
3:36 AM 42.8 °F - 39.2 °F 87% 29.51 in 10.0 mi Calm Calm - N/A   Overcast
3:56 AM 42.8 °F - 39.2 °F 87% 29.52 in 10.0 mi Calm Calm - N/A   Overcast
4:16 AM 42.8 °F 40.1 °F 39.2 °F 87% 29.52 in 10.0 mi ESE 4.6 mph - N/A   Mostly Cloudy
4:36 AM 44.6 °F 42.2 °F 41.0 °F 87% 29.52 in 10.0 mi East 4.6 mph - N/A   Overcast
4:56 AM 44.6 °F 42.2 °F 41.0 °F 87% 29.53 in 10.0 mi ESE 4.6 mph - N/A   Overcast
5:16 AM 44.6 °F 41.4 °F 41.0 °F 87% 29.53 in 10.0 mi ESE 5.8 mph - N/A   Mostly Cloudy
5:36 AM 44.6 °F 40.7 °F 41.0 °F 87% 29.54 in 10.0 mi ESE 6.9 mph - N/A   Overcast
5:56 AM 44.6 °F 40.2 °F 41.0 °F 87% 29.54 in 10.0 mi ESE 8.1 mph - N/A   Overcast
6:16 AM 44.6 °F 40.2 °F 41.0 °F 87% 29.55 in 10.0 mi ESE 8.1 mph - N/A   Overcast
6:36 AM 44.6 °F 42.2 °F 41.0 °F 87% 29.56 in 8.0 mi SE 4.6 mph - N/A   Overcast
6:56 AM 44.6 °F 40.2 °F 41.0 °F 87% 29.56 in 10.0 mi SE 8.1 mph - N/A   Overcast
7:16 AM 44.6 °F 39.7 °F 41.0 °F 87% 29.56 in 10.0 mi ESE 9.2 mph - N/A   Overcast
7:36 AM 44.6 °F 38.8 °F 41.0 °F 87% 29.57 in 7.0 mi ESE 11.5 mph - N/A   Overcast
7:56 AM 44.6 °F 39.2 °F 42.8 °F 93% 29.58 in 10.0 mi ESE 10.4 mph - N/A   Overcast
8:16 AM 44.6 °F 40.7 °F 42.8 °F 93% 29.59 in 10.0 mi SE 6.9 mph - N/A   Overcast
8:36 AM 44.6 °F 40.2 °F 41.0 °F 87% 29.59 in 10.0 mi SE 8.1 mph - N/A   Overcast
8:56 AM 44.6 °F 40.2 °F 41.0 °F 87% 29.60 in 10.0 mi ESE 8.1 mph - N/A   Overcast
9:16 AM 46.4 °F 42.9 °F 41.0 °F 81% 29.61 in 10.0 mi ESE 6.9 mph - N/A   Overcast
9:36 AM 46.4 °F 42.9 °F 41.0 °F 81% 29.61 in 10.0 mi SE 6.9 mph - N/A   Overcast
9:56 AM 46.4 °F 42.4 °F 41.0 °F 81% 29.62 in 10.0 mi SE 8.1 mph - N/A   Overcast
10:16 AM 46.4 °F 41.5 °F 41.0 °F 81% 29.63 in 10.0 mi SE 10.4 mph - N/A   Overcast
10:36 AM 46.4 °F 42.4 °F 42.8 °F 87% 29.64 in 7.0 mi SE 8.1 mph - N/A   Overcast
10:56 AM 46.4 °F 42.4 °F 42.8 °F 87% 29.64 in 10.0 mi SE 8.1 mph - N/A   Overcast
11:16 AM 46.4 °F 41.9 °F 42.8 °F 87% 29.65 in 10.0 mi SE 9.2 mph - N/A   Overcast
11:36 AM 46.4 °F 42.9 °F 42.8 °F 87% 29.66 in 10.0 mi ESE 6.9 mph - N/A   Mostly Cloudy
11:56 AM 46.4 °F 42.4 °F 42.8 °F 87% 29.66 in 10.0 mi ESE 8.1 mph - N/A   Overcast
12:16 PM 46.4 °F 42.9 °F 41.0 °F 81% 29.67 in 10.0 mi ESE 6.9 mph - N/A   Overcast
12:36 PM 46.4 °F 41.9 °F 41.0 °F 81% 29.67 in 10.0 mi ESE 9.2 mph - N/A   Overcast
12:56 PM 48.2 °F - 41.0 °F 76% 29.67 in 10.0 mi ESE 9.2 mph - N/A   Overcast
1:16 PM 48.2 °F - 42.8 °F 82% 29.67 in 10.0 mi ESE 8.1 mph - N/A   Overcast
1:36 PM 48.2 °F - 42.8 °F 82% 29.67 in 10.0 mi ESE 9.2 mph - N/A   Overcast
1:56 PM 50.0 °F - 42.8 °F 76% 29.67 in 10.0 mi ESE 6.9 mph - N/A   Overcast
2:16 PM 50.0 °F - 39.2 °F 66% 29.67 in 10.0 mi ESE 8.1 mph - N/A   Overcast
2:36 PM 50.0 °F - 41.0 °F 71% 29.67 in 10.0 mi ESE 8.1 mph - N/A   Overcast
2:56 PM 48.2 °F - 42.8 °F 82% 29.67 in 10.0 mi ESE 8.1 mph - N/A   Overcast
3:16 PM 48.2 °F - 42.8 °F 82% 29.67 in 10.0 mi ESE 6.9 mph - N/A   Overcast
3:36 PM 48.2 °F - 42.8 °F 82% 29.67 in 10.0 mi SE 10.4 mph - N/A   Overcast
3:56 PM 48.2 °F - 42.8 °F 82% 29.67 in 10.0 mi ESE 10.4 mph - N/A   Overcast
4:16 PM 48.2 °F - 41.0 °F 76% 29.67 in 10.0 mi ESE 11.5 mph - N/A   Mostly Cloudy
4:36 PM 48.2 °F - 42.8 °F 82% 29.67 in 10.0 mi SE 10.4 mph - N/A   Mostly Cloudy
4:56 PM 48.2 °F - 42.8 °F 82% 29.67 in 10.0 mi SE 6.9 mph - N/A   Overcast
5:16 PM 48.2 °F - 41.0 °F 76% 29.67 in 10.0 mi SE 6.9 mph - N/A   Overcast
5:36 PM 48.2 °F - 41.0 °F 76% 29.66 in 10.0 mi SE 5.8 mph - N/A   Overcast
5:56 PM 48.2 °F - 41.0 °F 76% 29.66 in 10.0 mi ESE 5.8 mph - N/A   Overcast
6:16 PM 46.4 °F 42.9 °F 41.0 °F 81% 29.66 in 10.0 mi ESE 6.9 mph - N/A   Overcast
6:36 PM 46.4 °F 45.2 °F 41.0 °F 81% 29.66 in 10.0 mi SE 3.5 mph - N/A   Overcast
6:56 PM 46.4 °F - 41.0 °F 81% 29.65 in 10.0 mi Calm Calm - N/A   Overcast
7:16 PM 46.4 °F - 41.0 °F 81% 29.65 in 10.0 mi Calm Calm - N/A   Overcast
7:36 PM 44.6 °F - 41.0 °F 87% 29.65 in 10.0 mi Calm Calm - N/A   Overcast
7:56 PM 44.6 °F - 41.0 °F 87% 29.64 in 10.0 mi Calm Calm - N/A   Overcast
8:16 PM 44.6 °F - 41.0 °F 87% 29.64 in 10.0 mi Calm Calm - N/A   Overcast
8:36 PM 44.6 °F - 41.0 °F 87% 29.64 in 10.0 mi Calm Calm - N/A   Overcast
8:56 PM 44.6 °F 43.1 °F 42.8 °F 93% 29.64 in 10.0 mi NNW 3.5 mph - N/A   Overcast
9:16 PM 44.6 °F 43.1 °F 41.0 °F 87% 29.64 in 10.0 mi NNW 3.5 mph - N/A   Overcast
9:36 PM 44.6 °F - 41.0 °F 87% 29.64 in 10.0 mi Calm Calm - N/A   Overcast
10:16 PM 44.6 °F - 41.0 °F 87% 29.64 in 10.0 mi Calm Calm - N/A   Overcast
10:36 PM 44.6 °F - 41.0 °F 87% 29.64 in 10.0 mi Calm Calm - N/A   Mostly Cloudy
10:56 PM 42.8 °F - 39.2 °F 87% 29.64 in 10.0 mi Calm Calm - N/A   Scattered Clouds
11:16 PM 42.8 °F 41.1 °F 39.2 °F 87% 29.63 in 10.0 mi North 3.5 mph - N/A   Mostly Cloudy
11:36 PM 42.8 °F 41.1 °F 39.2 °F 87% 29.63 in 10.0 mi NNW 3.5 mph - N/A   Mostly Cloudy
11:56 PM 42.8 °F - 39.2 °F 87% 29.63 in 10.0 mi Calm Calm - N/A   Mostly Cloudy